Showing default

GONETS D1 6, 24730

Orbit data source: Space-Track

GONETS D1 6, 24730 is a payload satellite owned by Gonets (CIS) in LEO that was launched on Fri, 14 Feb 1997 UTC via a TSIKLON-3 launch vehicle from the Plesetsk Missile And Space Complex (PKMTR). Payload-class satellites include a variety of spacecraft equipped with specific instruments for various scientific and technological missions. These include communications satellites like Starlink; space stations such as the ISS; scientific satellites like the Hubble; Earth observation satellites from companies like Planet Labs, Umbra, and HawkEye 360; GPS; miniature CubeSats for education and research; and military/defense satellites.

Loading next visibility...
Identifier
24730, 1997-006F
Orbit
LEO
Country
Flag of CISCIS
Related business
Manufacturer
NPO PM
Mission
Non-operational Civil Communications
Bus & Motor
STRELA-3, Unknown motor
Mass
225 kg wet, 225 kg dry
Launch date (UTC)
1997-02-14 (29 years ago)
Launch vehicle
TSIKLON-3
Launch site
Plesetsk Missile And Space Complex (PKMTR)
Object type
Payload
Rocket body
Debris
Shape & HBR
Cyl + 1 Ant, 3.5 m
Radar Cross Section
1.798 m², Medium (>0.1 m² and < 1m²)

Expand to show TLE details & history
Last TLE update: 14 hours ago

TLE from 14 hours ago
0 GONETS D1 6
1 24730U 97006F   26127.93159046  .00000039  00000-0  15949-3 0  9996
2 24730  82.6047 282.6692 0003248  60.7645 299.3771 12.62498345346594
Epoch: 2026-05-07T22:21Z
TLE epoch observation values (Epoch: 2026-05-07T22:21:29.415Z)
Latitude
-0.00001°
Longitude
81.52599°
Altitude
1,414.139 km
Speed
7.154 km/s
True Right ascension
18h 50m 40s
True Declination
0° 00' 00"
Sunlit
Object was in daylight at epoch
Visualization orbit readout
Latitude
Unknown
Longitude
Unknown
Altitude
Unknown
Speed
Unknown
Apparent Right ascension
Unknown
Apparent Declination
Unknown
Sunlit
N/A
Visualization observer readout
Local Sidereal Time
20:51:53
Azimuth
Unknown
Elevation
Unknown
Doppler factor
Unknown
Orbital elements
Apogee altitude
1,412.498 km
Perigee altitude
1,407.439 km
Semi-major axis
7,788.106 km
Eccentricity
0.00032
Inclination
82.6047°
RAAN
282.6692°
Arg. of periapsis
60.7645°
True anomaly
299.34466°
Mean anomaly
299.3771°
Eccentric anomaly
299.36088°
Mean motion
3.15788 °/min
Orbital period
114 mins
BSTAR
0.00015949
Loading maneuver chart data...
Computing Atmospheric mass density...
Loading historical data...
Loading historical data...
Loading historical data...
Loading historical data...
Loading historical data...
Loading historical data...
Loading historical data...

Documentation

Showing up to 5 results
|